Weather Service Report


234 
ASUS44 KJAN 281810
RWRMS 

MISSISSIPPI HOURLY WEATHER ROUNDUP
NATIONAL WEATHER SERVICE JACKSON MS
100 PM CDT THU AUG 28 2014

NOTE: "FAIR: INDICATES FEW OR NO CLOUDS BELOW 12,000 FEET WITH NO
SIGNIFICANT WEATHER AND/OR OBSTRUCTIONS TO VISIBILITY.

MSZ001>002-007>008-010>013-018>021-025>028-034>036-281900-
NORTHWEST MISSISSIPPI
  
CITY           SKY/WX    TMP DP  RH WIND       PRES   REMARKS
CLARKSDALE     FAIR      90  63  40 CALM      30.02F HX  90           
CLEVELAND      FAIR      91  64  40 CALM      30.00S HX  92           
GREENWOOD      SUNNY     92  60  34 E5        30.00F HX  91           
6HR MIN TEMP:  67; 6HR MAX TEMP:  92;                                

GREENVILLE     MOSUNNY   91  62  37 CALM      29.99F HX  91           
6HR MIN TEMP:  67; 6HR MAX TEMP:  92;                                

GRENADA        FAIR      91  57  31 CALM      30.01F HX  90           
OLIVE BRANCH   MOSUNNY   90  64  43 W7        30.02F HX  91           
OXFORD         FAIR      86  64  48 NW6       30.03F                  
TUNICA         CLEAR     91  59  33 E7        30.02S HX  90           
$$

MSZ003>006-009-014>017-022>024-029>033-037>039-281900-
NORTHEAST MISSISSIPPI
  
CITY           SKY/WX    TMP DP  RH WIND       PRES   REMARKS
BELMONT        MOCLDY    89  70  54 SW3       30.02F HX  94           
COLUMBUS AFB   SUNNY     92  56  29 E7        30.00F HX  90           
6HR MIN TEMP:  66; 6HR MAX TEMP:  92; 6HR PCP: TRACE;                

CORINTH        FAIR      90  68  48 VRB3      30.00F HX  93           
GOLDN TRIANGLE MOSUNNY   91  61  35 E7        30.02F HX  91           
STARKVILLE     FAIR      90  55  31 E6        30.01F                  
TUPELO         MOSUNNY   93  63  36 VRB5      30.00F HX  94           
6HR MIN TEMP:  70; 6HR MAX TEMP:  93;                                

$$

MSZ040-058-281900-
CENTRAL MISSISSIPPI
  
CITY           SKY/WX    TMP DP  RH WIND       PRES   REMARKS
JACKSON INTL   MOSUNNY   93  59  31 S5        30.01F HX  92           
6HR MIN TEMP:  69; 6HR MAX TEMP:  93;                                

JACKSON HAWKNS MOSUNNY   93  59  31 CALM      30.01F HX  92           
6HR MIN TEMP:  71; 6HR MAX TEMP:  94;                                

MERIDIAN KEY   MOSUNNY   93  53  25 E6        30.00F HX  90           
MERIDIAN NAS   PTSUNNY   93  57  29 VRB5      30.01F HX  91           
6HR MIN TEMP:  65; 6HR MAX TEMP:  94;                                

RAYMOND        FAIR      91  86  84 S3        30.01S HX 122           
VICKSBURG      PTSUNNY   89  68  49 SE3       30.00F HX  93           
6HR MIN TEMP:  69; 6HR MAX TEMP:  91;                                

$$

MSZ059>079-281900-
SOUTH MISSISSIPPI
  
CITY           SKY/WX    TMP DP  RH WIND       PRES   REMARKS
BROOKHAVEN     FAIR      84  73  70 S6        30.04F HX  91           
COLUMBIA       FAIR      90  72  55 S6        30.00F HX  96           
HATTIESBURG    PTSUNNY   90  69  50 W7        30.01F HX  94           
6HR MIN TEMP:  71; 6HR MAX TEMP:  91;                                

MCCOMB         CLOUDY    87  67  51 SE5       30.02F HX  90           
6HR MIN TEMP:  73; 6HR MAX TEMP:  90;                                

NATCHEZ        MOSUNNY   90  72  55 S7        30.01F HX  96           
6HR MIN TEMP:  72; 6HR MAX TEMP:  90;                                

PINE BELT      PTSUNNY   90  68  48 SE7       30.03F HX  93           
$$

MSZ080>082-281900-
COASTAL MISSISSIPPI
  
CITY           SKY/WX    TMP DP  RH WIND       PRES   REMARKS
BAY ST LOUIS   MOSUNNY  N/A N/A N/A S7        30.01F                  
BILOXI         PTSUNNY   89  72  56 SE7       30.01S HX  95           
6HR MIN TEMP:  77; 6HR MAX TEMP:  92;                                

PASCAGOULA     CLOUDY    86  72  62 S3        30.00F HX  92           
6HR MIN TEMP:  75; 6HR MAX TEMP:  90;                                

GULFPORT       PTSUNNY   89  72  56 S9        30.00F HX  96           
6HR MIN TEMP:  78; 6HR MAX TEMP:  90;                                

$$

Return to Home page


Western Regional Climate Center, wrcc@dri.edu